EN

Hourly Weather Al Mukalla

Today, 18 January, Monday

Time Temperature Precipitation Wind Pressure Humidity
00:00 +21°C° 0 mm 0 mps 748 mmHg 70%
01:00 +21°C° 0 mm 0 mps 748 mmHg 71%
02:00 +20°C° 0 mm 0 mps 747 mmHg 72%
03:00 +20°C° 0 mm 0 mps 747 mmHg 71%
04:00 +20°C° 0 mm 0 mps 748 mmHg 71%
05:00 +19°C° 0 mm 0 mps 748 mmHg 70%
06:00 +19°C° 0 mm 0 mps 748 mmHg 70%
07:00 +23°C° 0 mm 1 mps 749 mmHg 60%
08:00 +26°C° 0 mm 1 mps 749 mmHg 51%
09:00 +28°C° 0 mm 1 mps 749 mmHg 42%
10:00 +29°C° 0 mm 2 mps 749 mmHg 40%
11:00 +30°C° 0 mm 2 mps 748 mmHg 39%
12:00 +31°C° 0 mm 2 mps 748 mmHg 37%
13:00 +31°C° 0 mm 3 mps 748 mmHg 40%
14:00 +30°C° 0 mm 3 mps 747 mmHg 43%
15:00 +30°C° 0 mm 3 mps 747 mmHg 46%
16:00 +29°C° 0 mm 2 mps 747 mmHg 52%
17:00 +27°C° 0 mm 2 mps 747 mmHg 59%
18:00 +26°C° 0 mm 1 mps 748 mmHg 65%
19:00 +25°C° 0 mm 1 mps 748 mmHg 68%
20:00 +25°C° 0 mm 1 mps 749 mmHg 71%
21:00 +24°C° 0 mm 1 mps 749 mmHg 73%
22:00 +24°C° 0 mm 1 mps 749 mmHg 75%
23:00 +21°C° 0 mm 0 mps 749 mmHg 77%

Tomorrow, 19 January, Tuesday

Time Temperature Precipitation Wind Pressure Humidity
00:00 +21°C° 0 mm 0 mps 749 mmHg 78%
01:00 +22°C° 0 mm 1 mps 749 mmHg 78%
02:00 +22°C° 0 mm 1 mps 749 mmHg 78%
03:00 +22°C° 0 mm 1 mps 748 mmHg 77%
04:00 +21°C° 0 mm 1 mps 749 mmHg 73%
05:00 +21°C° 0 mm 1 mps 749 mmHg 69%
06:00 +21°C° 0 mm 1 mps 749 mmHg 65%
07:00 +23°C° 0 mm 1 mps 750 mmHg 55%
08:00 +25°C° 0 mm 1 mps 750 mmHg 45%
09:00 +28°C° 0 mm 1 mps 750 mmHg 35%
10:00 +29°C° 0 mm 2 mps 750 mmHg 33%
11:00 +30°C° 0 mm 2 mps 749 mmHg 31%
12:00 +31°C° 0 mm 3 mps 748 mmHg 30%
13:00 +31°C° 0 mm 3 mps 748 mmHg 31%
14:00 +30°C° 0 mm 3 mps 747 mmHg 32%
15:00 +30°C° 0 mm 3 mps 747 mmHg 33%
16:00 +29°C° 0 mm 2 mps 747 mmHg 37%
17:00 +27°C° 0 mm 2 mps 747 mmHg 41%
18:00 +26°C° 0 mm 1 mps 748 mmHg 46%
19:00 +25°C° 0 mm 1 mps 748 mmHg 49%
20:00 +25°C° 0 mm 1 mps 749 mmHg 52%
21:00 +22°C° 0 mm 0 mps 749 mmHg 55%
22:00 +22°C° 0 mm 0 mps 749 mmHg 51%
23:00 +22°C° 0 mm 0 mps 749 mmHg 46%

Day after tomorrow, 20 January, Wednesday

Time Temperature Precipitation Wind Pressure Humidity
00:00 +21°C° 0 mm 0 mps 749 mmHg 42%
01:00 +21°C° 0 mm 0 mps 749 mmHg 46%
02:00 +22°C° 0 mm 1 mps 748 mmHg 49%
03:00 +21°C° 0 mm 1 mps 748 mmHg 53%
04:00 +21°C° 0 mm 1 mps 749 mmHg 55%
05:00 +21°C° 0 mm 1 mps 749 mmHg 56%
06:00 +20°C° 0 mm 1 mps 749 mmHg 57%
07:00 +23°C° 0 mm 1 mps 750 mmHg 50%
08:00 +25°C° 0 mm 1 mps 750 mmHg 42%
09:00 +27°C° 0 mm 2 mps 751 mmHg 35%
10:00 +28°C° 0 mm 2 mps 750 mmHg 32%
11:00 +30°C° 0 mm 2 mps 750 mmHg 29%
12:00 +31°C° 0 mm 3 mps 749 mmHg 26%
13:00 +30°C° 0 mm 3 mps 749 mmHg 27%
14:00 +30°C° 0 mm 3 mps 748 mmHg 28%
15:00 +30°C° 0 mm 3 mps 748 mmHg 29%
16:00 +29°C° 0 mm 3 mps 748 mmHg 36%
17:00 +27°C° 0 mm 2 mps 748 mmHg 43%
18:00 +26°C° 0 mm 2 mps 749 mmHg 50%
19:00 +25°C° 0 mm 2 mps 749 mmHg 53%
20:00 +25°C° 0 mm 1 mps 750 mmHg 55%
21:00 +24°C° 0 mm 1 mps 750 mmHg 58%
22:00 +24°C° 0 mm 1 mps 750 mmHg 58%
23:00 +23°C° 0 mm 2 mps 750 mmHg 57%

21 January, Thursday

Time Temperature Precipitation Wind Pressure Humidity
00:00 +23°C° 0 mm 2 mps 750 mmHg 57%
01:00 +23°C° 0 mm 2 mps 749 mmHg 53%
02:00 +21°C° 0 mm 2 mps 749 mmHg 50%
03:00 +21°C° 0 mm 2 mps 748 mmHg 46%
04:00 +20°C° 0 mm 2 mps 749 mmHg 49%
05:00 +20°C° 0 mm 2 mps 749 mmHg 52%
06:00 +19°C° 0 mm 2 mps 749 mmHg 55%
07:00 +21°C° 0 mm 2 mps 750 mmHg 50%
08:00 +25°C° 0 mm 2 mps 750 mmHg 45%
09:00 +27°C° 0 mm 2 mps 751 mmHg 40%
10:00 +28°C° 0 mm 2 mps 750 mmHg 37%
11:00 +29°C° 0 mm 3 mps 750 mmHg 35%
12:00 +30°C° 0 mm 3 mps 749 mmHg 32%
13:00 +30°C° 0 mm 3 mps 748 mmHg 37%
14:00 +30°C° 0 mm 3 mps 748 mmHg 41%
15:00 +29°C° 0 mm 3 mps 747 mmHg 46%
16:00 +28°C° 0 mm 3 mps 748 mmHg 52%
17:00 +27°C° 0 mm 2 mps 748 mmHg 58%
18:00 +26°C° 0 mm 2 mps 748 mmHg 64%
19:00 +25°C° 0 mm 2 mps 749 mmHg 66%
20:00 +25°C° 0 mm 1 mps 749 mmHg 68%
21:00 +24°C° 0 mm 1 mps 750 mmHg 69%
22:00 +24°C° 0 mm 1 mps 750 mmHg 71%
23:00 +23°C° 0 mm 1 mps 750 mmHg 73%

22 January, Friday

Time Temperature Precipitation Wind Pressure Humidity
00:00 +23°C° 0 mm 1 mps 750 mmHg 75%
01:00 +23°C° 0 mm 1 mps 749 mmHg 74%
02:00 +22°C° 0 mm 1 mps 749 mmHg 73%
03:00 +22°C° 0 mm 1 mps 749 mmHg 72%
04:00 +21°C° 0 mm 2 mps 750 mmHg 66%
05:00 +21°C° 0 mm 2 mps 750 mmHg 59%
06:00 +21°C° 0 mm 2 mps 751 mmHg 53%
07:00 +24°C° 0 mm 3 mps 751 mmHg 44%
08:00 +26°C° 0 mm 3 mps 752 mmHg 36%
09:00 +28°C° 0 mm 3 mps 752 mmHg 27%
10:00 +29°C° 0 mm 3 mps 751 mmHg 25%
11:00 +30°C° 0 mm 3 mps 751 mmHg 23%
12:00 +31°C° 0 mm 3 mps 750 mmHg 21%
13:00 +31°C° 0 mm 3 mps 749 mmHg 25%
14:00 +31°C° 0 mm 3 mps 749 mmHg 30%
15:00 +30°C° 0 mm 4 mps 748 mmHg 35%
16:00 +29°C° 0 mm 3 mps 748 mmHg 41%
17:00 +28°C° 0 mm 2 mps 748 mmHg 48%
18:00 +26°C° 0 mm 1 mps 749 mmHg 55%
19:00 +26°C° 0 mm 1 mps 749 mmHg 55%
20:00 +25°C° 0 mm 2 mps 750 mmHg 56%
21:00 +25°C° 0 mm 2 mps 751 mmHg 57%
22:00 +24°C° 0 mm 2 mps 751 mmHg 52%
23:00 +24°C° 0 mm 3 mps 750 mmHg 46%

23 January, Saturday

Time Temperature Precipitation Wind Pressure Humidity
00:00 +22°C° 0 mm 3 mps 750 mmHg 41%
01:00 +22°C° 0 mm 3 mps 750 mmHg 40%
02:00 +22°C° 0 mm 3 mps 750 mmHg 38%
03:00 +21°C° 0 mm 3 mps 749 mmHg 36%
04:00 +21°C° 0 mm 3 mps 750 mmHg 36%
05:00 +20°C° 0 mm 3 mps 750 mmHg 35%
06:00 +20°C° 0 mm 4 mps 751 mmHg 35%
07:00 +22°C° 0 mm 3 mps 751 mmHg 31%
08:00 +25°C° 0 mm 3 mps 751 mmHg 27%
09:00 +27°C° 0 mm 3 mps 752 mmHg 23%
10:00 +28°C° 0 mm 3 mps 751 mmHg 21%
11:00 +30°C° 0 mm 3 mps 750 mmHg 18%
12:00 +31°C° 0 mm 3 mps 750 mmHg 16%
13:00 +31°C° 0 mm 3 mps 749 mmHg 19%
14:00 +30°C° 0 mm 3 mps 748 mmHg 22%
15:00 +30°C° 0 mm 4 mps 748 mmHg 25%
16:00 +28°C° 0 mm 3 mps 748 mmHg 32%
17:00 +27°C° 0 mm 2 mps 748 mmHg 39%
18:00 +25°C° 0 mm 1 mps 749 mmHg 46%
19:00 +25°C° 0 mm 1 mps 749 mmHg 47%
20:00 +24°C° 0 mm 2 mps 750 mmHg 49%
21:00 +24°C° 0 mm 2 mps 750 mmHg 50%
22:00 +23°C° 0 mm 2 mps 750 mmHg 50%
23:00 +23°C° 0 mm 2 mps 750 mmHg 50%
Show more